2020 AQ3
ephemeris date magn radius delta ra dec elong phase
Today5 Sep 202628.12.533 AU1.959 AU18h24m-25°57'113.3°21.4°
2020 AQ3 - 2026-09-05
astro.vanbuitenen.nl


 
-1 year
-1 month
-1 day
Now
+1 day
+1 month
+1 year

The interactive orbit chart above shows the body's path through the solar system and its position at the given date. Green and blue lines are shown perpendicular to the ecliptic plane: Green if the path is above the ecliptic plane, blue if it is below. (Left-click and drag to rotate the view; Right-click and drag to move the view; Use scroll wheel to zoom in our out.)

The orbital elements of 2020 AQ3 are:

            e (Eccentricity)                : 0.5496925
            a (Semimajor axis)              : 2.0430350
            i (Inclination)                 : 11.19594
            Ω (Longitude of ascending node) : 307.27300
            ω (Argument of perihelion)      : 206.74383
            M (Mean anomaly)                : 57.84177
            Epoch                           : 2026 Jun 09

            L (Longitude of perihelion)     : 333.57695
            B (Latitude of perihelion)      : -5.01259
            P (Orbital period in years)     : 2.92            
        

The light curve chart below shows the estimated development of the minor planet's magnitude.


The all-sky chart below shows the path of the minor planet over the same period as the light curve. The current position is marked yellow.





The following chart shows the path of the minor planet in the next few days. The field of view is optimized for (~10x50) binoculars and finderscopes.




Ephemerides:
Date       Time       RA (2000)    DEC (2000)    delta   radius  elong  phase   PA    magn
2026-09-05 00:00 UT   18 24 13.8   -25 57 56     1.959    2.533  113.3   21.4    86   28.1 
2026-09-05 13:23 UT   18 24 25.1   -25 55 42     1.968    2.536  112.8   21.5    86   28.1 
2026-09-06 00:00 UT   18 24 34.4   -25 53 56     1.976    2.538  112.4   21.5    86   28.1 
2026-09-07 00:00 UT   18 24 56.6   -25 49 59     1.993    2.543  111.6   21.6    87   28.2 
2026-09-08 00:00 UT   18 25 20.3   -25 46 05     2.011    2.548  110.7   21.7    87   28.2 
2026-09-09 00:00 UT   18 25 45.5   -25 42 12     2.028    2.552  109.8   21.8    87   28.2 
2026-09-10 00:00 UT   18 26 12.2   -25 38 22     2.046    2.557  108.9   21.9    87   28.3 
2026-09-11 00:00 UT   18 26 40.3   -25 34 34     2.064    2.562  108.1   21.9    87   28.3 
2026-09-12 00:00 UT   18 27 09.9   -25 30 47     2.081    2.566  107.2   22.0    87   28.3 
2026-09-13 00:00 UT   18 27 40.8   -25 27 03     2.099    2.571  106.4   22.1    87   28.3 
2026-09-14 00:00 UT   18 28 13.0   -25 23 21     2.117    2.576  105.5   22.1    87   28.3 
2026-09-15 00:00 UT   18 28 46.6   -25 19 40     2.135    2.580  104.7   22.2    87   28.4 
2026-09-16 00:00 UT   18 29 21.5   -25 16 01     2.153    2.585  103.8   22.2    87   28.4 
2026-09-17 00:00 UT   18 29 57.6   -25 12 23     2.171    2.589  103.0   22.2    87   28.4 
2026-09-18 00:00 UT   18 30 35.0   -25 08 47     2.189    2.594  102.2   22.3    87   28.4 
2026-09-19 00:00 UT   18 31 13.6   -25 05 12     2.207    2.598  101.3   22.3    87   28.5 
2026-09-20 00:00 UT   18 31 53.4   -25 01 39     2.225    2.603  100.5   22.3    87   28.5 
2026-09-21 00:00 UT   18 32 34.3   -24 58 07     2.243    2.607   99.7   22.3    86   28.5 
2026-09-22 00:00 UT   18 33 16.4   -24 54 36     2.261    2.612   98.9   22.3    86   28.5 
2026-09-23 00:00 UT   18 33 59.5   -24 51 06     2.279    2.616   98.1   22.3    86   28.5 
2026-09-24 00:00 UT   18 34 43.8   -24 47 37     2.297    2.621   97.3   22.3    86   28.6 
2026-09-25 00:00 UT   18 35 29.0   -24 44 09     2.316    2.625   96.5   22.3    86   28.6 
2026-09-26 00:00 UT   18 36 15.4   -24 40 42     2.334    2.630   95.7   22.3    86   28.6 
2026-09-27 00:00 UT   18 37 02.7   -24 37 15     2.352    2.634   94.9   22.3    86   28.6 
2026-09-28 00:00 UT   18 37 51.0   -24 33 50     2.370    2.638   94.1   22.3    86   28.7 
2026-09-29 00:00 UT   18 38 40.2   -24 30 25     2.389    2.643   93.3   22.2    86   28.7 
2026-09-30 00:00 UT   18 39 30.5   -24 26 60     2.407    2.647   92.5   22.2    86   28.7 
2026-10-01 00:00 UT   18 40 21.6   -24 23 36     2.425    2.651   91.7   22.2    86   28.7 
2026-10-02 00:00 UT   18 41 13.6   -24 20 12     2.443    2.656   90.9   22.1    86   28.7 
2026-10-03 00:00 UT   18 42 06.5   -24 16 48     2.462    2.660   90.2   22.1    86   28.7 
2026-10-04 00:00 UT   18 43 00.3   -24 13 24     2.480    2.664   89.4   22.1    86   28.8 
2026-10-05 00:00 UT   18 43 55.0   -24 10 01     2.498    2.668   88.6   22.0    86   28.8 


    Terminology:
            
    delta:  distance between minor planet and earth in AU
    radius: distance between minor planet and sun in AU
    magn:   magnitude (brightness) estimate    
    ra:     right ascension in hours (24h = 360deg)
    dec:    declination in degrees
    elong:  elongation in degrees (angle sun-earth-minor planet)    
    phase:  phase angle in degrees (angle sun-minor planet-earth)        
    AU:     Astronomical Unit (mean distance between earth and sun: 149597870.7 km
    

Orbital elements provided by the MPC (Minor Planet Center).
Calculations by a modified version of AAPlus, a C# implementation of the AA+ project by PJ Naughter from the algorithms presented in the book "Astronomical Algorithms" by Jean Meeus.
NGC2000 dso catalog and star labels from VizieR as provided by the Strasbourg astronomical Data Center.
Tycho2 catalog from the ESO archive.